Regional Weather Roundup
Issued by NWS

Home | Current Version | Previous Version | Graphics & Text | Print | Product List | Glossary On
Versions: 1 2 3 4 5 6 7 8 9 10 11 12 13 14 15 16 17 18 19 20 21 22 23 24 25 26 27 28 29 30 31 32 33 34 35 36 37 38 39 40 41 42 43 44 45 46 47 48 49 50
000
ASUS45 KCYS 310010
RWRWY

WYOMING REGIONAL WEATHER ROUNDUP
NATIONAL WEATHER SERVICE CHEYENNE WY
600 PM MDT THU JUL 30 2015

NOTE:  "FAIR" INDICATES FEW OR NO CLOUDS BELOW 12,000 FEET
WITH NO SIGNIFICANT WEATHER AND/OR OBSTRUCTIONS TO VISIBILITY.

WYZ001-310100-
...YELLOWSTONE NATIONAL PARK...

CITY           SKY/WX    TMP DP  RH WIND       PRES   REMARKS
LK YELLOWSTONE   N/A     71  36  27 CALM      30.51F
6HR MIN TEMP:  61; 6HR MAX TEMP:  72;

W YELLOWSTONE  NOT AVBL

$$
WYZ002>013-054>058-071-098>099-310100-
...NORTHERN WYOMING...

CITY           SKY/WX    TMP DP  RH WIND       PRES   REMARKS
JACKSON        SUNNY     81  32  17 NW6       30.39S
CODY           SUNNY     84  34  16 SE7       30.29S
GREYBULL       SUNNY     90  28  11 CALM      30.19F
6HR MIN TEMP:  81; 6HR MAX TEMP:  92;

WORLAND        SUNNY     88  31  13 NE9       30.22F
6HR MIN TEMP:  80; 6HR MAX TEMP:  90;

SHERIDAN       SUNNY     89  38  16 VRB5      30.23F
6HR MIN TEMP:  83; 6HR MAX TEMP:  90;

BUFFALO        SUNNY     85  38  18 N13       30.30F
6HR MIN TEMP:  79; 6HR MAX TEMP:  87;

GILLETTE       SUNNY     86  34  15 W6        30.25F
6HR MIN TEMP:  82; 6HR MAX TEMP:  88;

HULETT         FAIR      82  36  18 NW6       30.27S
NEWCASTLE      FAIR      86  30  13 W6        30.25F

$$
WYZ014>020-022>026-101>103-310100-
...CENTRAL WYOMING...

CITY           SKY/WX    TMP DP  RH WIND       PRES   REMARKS
BIG PINEY      SUNNY     80  22  11 VRB3      30.41F
6HR MIN TEMP:  72; 6HR MAX TEMP:  81;

PINEDALE       SUNNY     79  21  11 W8        30.43S
DUBOIS         FAIR      79  23  12 N9G22     30.41S
LANDER         SUNNY     87  26  11 NW5       30.27F
6HR MIN TEMP:  78; 6HR MAX TEMP:  88;

RIVERTON       SUNNY     86  27  11 E7        30.29F
6HR MIN TEMP:  76; 6HR MAX TEMP:  88;

CASPER         SUNNY     85  22  10 VRB3      30.29F
6HR MIN TEMP:  78; 6HR MAX TEMP:  88;

DOUGLAS        MOSUNNY   88  39  17 SE13      30.27F
6HR MIN TEMP:  81; 6HR MAX TEMP:  90;


$$
WYZ021-027>030-104>119-310100-
...SOUTHERN WYOMING...

CITY           SKY/WX    TMP DP  RH WIND       PRES   REMARKS
EVANSTON       SUNNY     82  18   9 W9G24     30.42S
6HR MIN TEMP:  74; 6HR MAX TEMP:  84;

KEMMERER       SUNNY     81  18   9 NW13      30.44F
FORT BRIDGER   SUNNY     84   7   5 W7        30.43F
ROCK SPRINGS   SUNNY     82  21  10 VRB5      30.38S
6HR MIN TEMP:  74; 6HR MAX TEMP:  84;

DIXON          FAIR      87  11   6 W5        30.37F
RAWLINS        SUNNY     84  17   8 N6        30.39S
6HR MIN TEMP:  78; 6HR MAX TEMP:  85;

SARATOGA       FAIR      82  19   9 NW9       30.41S
LARAMIE        SUNNY     80  24  12 NE7       30.41F
6HR MIN TEMP:  75; 6HR MAX TEMP:  82;

CHEYENNE       SUNNY     82  42  24 E10       30.34F
6HR MIN TEMP:  79; 6HR MAX TEMP:  85;

TORRINGTON     SUNNY     88  42  20 SE13      30.22F
6HR MIN TEMP:  81; 6HR MAX TEMP:  90;

PINE BLUFFS    FAIR      84  36  17 N8        30.28F

$$


USA.gov is the U.S. government's official web portal to all federal, state and local government web resources and services.